カタログに戻る

FENGYUN 1C DEB

LostSSO
NORAD 41004·DEBRIS·🇨🇳 China

打ち上げ May 10, 1999 から Taiyuan Satellite Launch Center

Loading…

次のパス (今後24時間)

TLE

古いSource: Space-Track

元期: Sep 2, 2018, 13:44 UTC

1 41004U 99025EXJ 18245.57230416 -.00000153  00000-0 -12264-3 0  9991
2 41004  99.2254  13.6896 0267506 111.7282 251.2561 13.59204658209593

AllMySatでFENGYUN 1C DEBをリアルタイム追跡

Download on the App Store